Regional Weather Roundup
Issued by NWS Nashville, TN

Home | Current Version | Previous Version | Text Only | Print | Product List | Glossary On
Versions: 1 2 3 4 5 6 7 8 9 10 11 12 13 14 15 16 17 18 19 20 21 22 23 24 25 26 27 28 29 30 31 32 33 34 35 36 37 38 39 40 41 42 43 44 45 46 47 48 49 50
000
ASUS44 KOHX 031815
RWROHX
MIDDLE TENNESSEE HOURLY WEATHER ROUNDUP
NATIONAL WEATHER SERVICE NASHVILLE TN
100 PM CDT SUN MAY 03 2015

NOTE: "FAIR" INDICATES FEW OR NO CLOUDS BELOW 12,000 FEET WITH
NO SIGNIFICANT WEATHER AND/OR OBSTRUCTIONS TO VISIBILITY.

* THESE REPORTS ARE NOT UNDER NWS QUALITY CONTROL AND MAY NOT
  REPORT WEATHER SUCH AS PRECIPITATION AND FOG.


TNZ005>011-023>034-057-059-062>066-078-080-031900
...NORTHERN MIDDLE TENNESSEE...

CITY           SKY/WX    TMP DP  RH WIND       PRES   REMARKS
CLARKSVILLE    MOSUNNY   77  50  38 S9        30.11F
CROSSVILLE     MOSUNNY   73  42  32 S9        30.18F
NASHVILLE      PTSUNNY   76  48  37 S9        30.14F
PORTLAND       SUNNY     75  50  41 S8        30.13F
ROCKWOOD       SUNNY     73  47  39 S10       30.18
SMYRNA         MOSUNNY   78  51  38 S10       30.14F
SPARTA         MOSUNNY   79  52  38 SW9       30.14F
$$
TNZ056-058-060-061-075>077-079-093>097-031900
...SOUTHERN MIDDLE TENNESSEE...

CITY           SKY/WX    TMP DP  RH WIND       PRES   REMARKS
COLUMBIA       PTSUNNY   77  54  44 S6        30.12F
LEWISBURG      MOSUNNY   78  50  37 VRB7      30.14F
MCMINNVILLE    MOSUNNY   79  52  38 S7        30.15F
SHELBYVILLE    MOSUNNY   77  54  44 S7        30.15F
TULLAHOMA      MOSUNNY   75  46  35 S8        30.17S
WINCHESTER     SUNNY     79  48  34 W7        30.15F
$$


...KEY TO REMARKS...
VSB - VISIBILITY IN MILES
WCI - WIND CHILL INDEX
HX  - HEAT INDEX




USA.gov is the U.S. government's official web portal to all federal, state and local government web resources and services.